カタリナ彗星

C/2013 B2 ( Catalina )

English version
Home page
Updated on May 7, 2015

---------------------------------------------------------------------

・ プロフィール

発見日 2013年1月16日
発見光度 18.9等
発見者 J. A. Johnson (Catalina Sky Survey)

・ 軌道要素

Epoch 2013 July 7.0 TT = JDT 2456480.5
T 2013 July 1.54480 TT                                  MPC
q   3.7341166            (2000.0)            P               Q
z  -0.0006946      Peri.  156.43976     -0.67261502     -0.66560144
 +/-0.0000027      Node   331.95707     +0.52097364     -0.11560020
e   1.0025938      Incl.   43.45717     +0.52552402     -0.73730002
From 124 observations 2013 Jan. 16-2014 Mar. 30, mean residual 0".5.

・ 光度変化

        m1 = 10.0 + 5 logΔ + 10.0 log r

---------------------------------------------------------------------

軌道要素はM.P.E.C. 2014-G32に掲載されたものです。
光度グラフはComet for Windowsで作成したものです。

---------------------------------------------------------------------

Copyright(C) Seiichi Yoshida (comet@aerith.net). All rights reserved.